Change the Weather History Date:

Thursday, October 3, 2013

  Actual Average Record
Temperature  
Mean Temperature 56 °F -  
Max Temperature 68 °F 54 °F 77 °F (2010)
Min Temperature 44 °F 42 °F 35 °F (1996)
Degree Days  
Heating Degree Days 9    
Growing Degree Days 6 (Base 50)    
Moisture  
Dew Point 47 °F    
Average Humidity 76    
Maximum Humidity 88    
Minimum Humidity 63    
Precipitation  
Precipitation 0.00 in 0.08 in - ()
Sea Level Pressure  
Sea Level Pressure 30.02 in    
Wind  
Wind Speed 5 mph ()    
Max Wind Speed 8 mph    
Max Gust Speed -    
Visibility 6.2 miles    
Events      
Averages and records for this station are not official NWS values.
T = Trace of Precipitation, MM = Missing Value Source: Averaged Metar Reports

Daily Weather History Graph

Daily Weather History Graph

Search for Another Location

Airport or City:

Trip Planner

Search our weather history database for the weather conditions in past years. The results will help you decide how hot, cold, wet, or windy it might be!

Date:

Astronomy

Oct. 03, 2013 Rise Set
Actual Time 7:37 AM CEST 7:09 PM CEST
Civil Twilight 7:06 AM CEST 7:41 PM CEST
Nautical Twilight 6:29 AM CEST 8:17 PM CEST
Astronomical Twilight 5:52 AM CEST 8:54 PM CEST
Moon 5:49 AM CEST 6:12 PM CEST
Length of Visible Light 12h 35m
Length of Day
11h 32m
Waning Crescent, 3% of the Moon is Illuminated
Oct 3
Waning Crescent
Oct 5
New
Oct 12
First Quarter
Oct 19
Full
Oct 27
Last Quarter

Hourly Weather History & Observations

Time (CEST) Temp. Windchill Dew Point Humidity Pressure Visibility Wind Dir Wind Speed Gust Speed Precip Events Conditions
12:00 AM 51.8 °F - 44.6 °F 76% 30.01 in 6.2 mi East 5.8 mph - N/A   Unknown
12:30 AM 50.0 °F - 44.6 °F 82% 30.04 in 6.2 mi East 4.6 mph - N/A   Unknown
1:00 AM 50.0 °F - 44.6 °F 82% 30.04 in 6.2 mi ENE 4.6 mph - N/A   Unknown
1:30 AM 50.0 °F - 44.6 °F 82% 30.04 in 6.2 mi Variable 3.5 mph - N/A   Unknown
2:00 AM 50.0 °F - 44.6 °F 82% 30.04 in 6.2 mi ENE 3.5 mph - N/A   Unknown
2:30 AM 50.0 °F - 44.6 °F 82% 30.04 in 6.2 mi ENE 5.8 mph - N/A   Unknown
3:00 AM 50.0 °F - 42.8 °F 76% 30.04 in 6.2 mi East 6.9 mph - N/A   Unknown
3:30 AM 50.0 °F - 44.6 °F 82% 30.04 in 6.2 mi ENE 5.8 mph - N/A   Unknown
4:00 AM 48.2 °F - 42.8 °F 82% 30.01 in 6.2 mi ENE 4.6 mph - N/A   Unknown
4:30 AM 46.4 °F 45.2 °F 42.8 °F 87% 30.01 in 6.2 mi ENE 3.5 mph - N/A   Unknown
5:00 AM 46.4 °F 45.2 °F 42.8 °F 87% 30.01 in 6.2 mi ENE 3.5 mph - N/A   Unknown
5:30 AM 46.4 °F 45.2 °F 41.0 °F 81% 30.01 in 6.2 mi ENE 3.5 mph - N/A   Unknown
6:00 AM 46.4 °F 45.2 °F 41.0 °F 81% 30.01 in 6.2 mi ENE 3.5 mph - N/A   Unknown
6:30 AM 44.6 °F 42.2 °F 41.0 °F 87% 30.01 in 6.2 mi ENE 4.6 mph - N/A   Unknown
7:00 AM 44.6 °F 43.1 °F 41.0 °F 87% 30.04 in 6.2 mi ENE 3.5 mph - N/A   Unknown
7:30 AM 44.6 °F 41.4 °F 41.0 °F 87% 30.04 in 6.2 mi ENE 5.8 mph - N/A   Unknown
8:00 AM 44.6 °F 42.2 °F 41.0 °F 87% 30.04 in 6.2 mi ENE 4.6 mph - N/A   Unknown
8:30 AM 46.4 °F 43.5 °F 41.0 °F 81% 30.04 in 6.2 mi ENE 5.8 mph - N/A   Unknown
9:00 AM 48.2 °F - 41.0 °F 76% 30.04 in 6.2 mi East 4.6 mph - N/A   Unknown
9:30 AM 50.0 °F - 42.8 °F 76% 30.04 in 6.2 mi ENE 5.8 mph - N/A   Unknown
10:00 AM 51.8 °F - 42.8 °F 71% 30.04 in 6.2 mi ENE 6.9 mph - N/A   Unknown
10:30 AM 53.6 °F - 44.6 °F 72% 30.04 in 6.2 mi ENE 8.1 mph - N/A   Unknown
11:00 AM 53.6 °F - 44.6 °F 72% 30.04 in 6.2 mi East 8.1 mph - N/A   Unknown
11:30 AM 57.2 °F - 46.4 °F 67% 30.04 in 6.2 mi East 8.1 mph - N/A   Unknown
12:00 PM 57.2 °F - 46.4 °F 67% 30.01 in 6.2 mi East 8.1 mph - N/A   Unknown
12:30 PM 59.0 °F - 48.2 °F 67% 30.04 in 6.2 mi East 5.8 mph - N/A   Unknown
1:00 PM 60.8 °F - 50.0 °F 68% 30.01 in 6.2 mi ENE 6.9 mph - N/A   Unknown
1:30 PM 62.6 °F - 50.0 °F 63% 30.01 in 6.2 mi East 5.8 mph - N/A   Unknown
2:00 PM 64.4 °F - 51.8 °F 64% 30.01 in 6.2 mi ENE 6.9 mph - N/A   Unknown
2:30 PM 66.2 °F - 53.6 °F 64% 30.01 in 6.2 mi East 5.8 mph - N/A   Unknown
3:00 PM 66.2 °F - 53.6 °F 64% 30.01 in 6.2 mi East 6.9 mph - N/A   Unknown
3:30 PM 68.0 °F - 55.4 °F 64% 30.01 in 6.2 mi East 6.9 mph - N/A   Unknown
4:00 PM 66.2 °F - 53.6 °F 64% 30.01 in 6.2 mi ESE 8.1 mph - N/A   Unknown
4:30 PM 66.2 °F - 53.6 °F 64% 29.98 in 6.2 mi East 8.1 mph - N/A   Unknown
5:00 PM 66.2 °F - 53.6 °F 64% 29.98 in 6.2 mi East 6.9 mph - N/A   Partly Cloudy
5:30 PM 64.4 °F - 53.6 °F 68% 29.98 in 6.2 mi East 8.1 mph - N/A   Unknown
6:00 PM 62.6 °F - 53.6 °F 72% 29.98 in 6.2 mi East 6.9 mph - N/A   Mostly Cloudy
6:30 PM 60.8 °F - 50.0 °F 68% 30.01 in 6.2 mi East 8.1 mph - N/A   Unknown
7:00 PM 59.0 °F - 50.0 °F 72% 30.01 in 6.2 mi ENE 8.1 mph - N/A   Unknown
7:30 PM 57.2 °F - 50.0 °F 77% 30.01 in 6.2 mi ENE 5.8 mph - N/A   Unknown
8:00 PM 55.4 °F - 48.2 °F 77% 30.01 in 6.2 mi ENE 5.8 mph - N/A   Unknown
8:30 PM 55.4 °F - 48.2 °F 77% 30.01 in 6.2 mi ENE 3.5 mph - N/A   Unknown
9:00 PM 53.6 °F - 48.2 °F 82% 30.01 in 6.2 mi ENE 4.6 mph - N/A   Unknown
9:30 PM 53.6 °F - 48.2 °F 82% 30.04 in 6.2 mi ENE 4.6 mph - N/A   Unknown
10:00 PM 53.6 °F - 48.2 °F 82% 30.04 in 6.2 mi East 4.6 mph - N/A   Unknown
10:30 PM 53.6 °F - 48.2 °F 82% 30.01 in 6.2 mi East 3.5 mph - N/A   Unknown
11:00 PM 53.6 °F - 48.2 °F 82% 30.04 in 6.2 mi Variable 2.3 mph - N/A   Unknown
11:30 PM 53.6 °F - 50.0 °F 88% 30.01 in 6.2 mi East 3.5 mph - N/A   Unknown